Wind_Gust
19 21 23 24 23 22 22 24 26 25 26 27 28 25 24 26 24 19 20 22 17 12 14 16 18 19 20 21 21 23 22 22 19 22 24 23 21 30 29 28 23 20 20 22 21 15 13 15 14 13 14 16 16 18 17 20 20 21 22 18 15 13 12 12 16 15 19 19 16 11 15 14 13 11 8 10 8 6 9 9 11 10 9 12 10 9
21 23 22 22 22 22 22 22 20 26 27 26 22 22 25 26 20 17 19 28 27 16 15 18 22 23 23 22 25 21 25 22 22 21 23 23 24 28 30 27 26 22 20 25 21 19 15 16 15 13 15 11 19 18 19 21 21 20 25 20 17 17 16 17 19 15 14 14 17 14 13 13 14 14 13 11 12 10 9 11 8 5 13 16 12 11
24 25 21 22 22 20 20 19 22 23 25 23 19 22 24 22 20 19 19 15 14 14 14 17 23 24 24 25 24 21 23 28 21 22 20 23 24 24 28 30 27 22 16 19 25 24 14 11 13 16 12 14 15 17 20 20 22 21 21 20 18 16 20 17 14 18 15 10 12 13 17 13 14 12 10 7 8 10 14 13 8 9 10 11 14 14
22 23 25 24 21 20 21 20 14 14 18 17 19 25 26 21 22 25 22 20 15 16 14 17 24 22 20 20 18 16 20 26 29 24 22 23 25 25 27 23 32 27 23 23 26 26 17 14 12 14 16 17 15 17 21 22 23 23 20 23 20 18 15 16 15 14 12 8 7 7 6 8 7 13 13 10 9 8 10 12 9 8 11 10 13 15
23 24 29 26 23 23 22 15 15 16 19 20 22 25 26 24 27 27 22 19 14 14 12 19 27 29 23 26 28 23 25 26 29 27 24 24 25 25 24 22 32 29 27 27 27 22 19 17 16 15 17 16 21 22 23 20 21 24 20 18 15 15 16 14 14 15 12 12 10 8 9 9 9 10 9 7 8 7 6 7 6 7 10 9 13 10
25 27 24 31 21 25 23 18 20 19 22 22 21 25 25 24 25 24 24 28 26 24 20 21 27 29 24 30 34 30 30 30 28 30 26 23 24 24 24 20 25 25 27 31 27 26 21 21 17 18 21 24 23 27 23 26 25 24 18 14 18 15 16 17 14 15 12 9 8 9 9 11 9 13 13 10 11 9 8 8 6 5 6 7 10 11
24 22 19 17 13 13 16 20 18 21 23 22 24 24 25 27 27 24 28 27 28 28 16 20 28 29 19 23 24 27 30 29 28 28 28 24 24 25 25 24 26 30 31 27 24 23 22 20 22 25 29 28 28 27 28 28 26 24 18 19 22 20 22 22 18 19 15 10 11 10 10 11 13 13 12 9 7 9 8 7 7 5 5 8 11 13
22 25 25 20 23 22 19 23 22 21 24 28 18 18 25 30 28 28 28 26 27 21 26 26 26 29 28 22 24 22 20 20 20 26 28 26 23 24 21 21 16 26 27 26 23 27 25 25 23 27 27 25 25 26 31 26 19 17 17 19 20 19 18 17 18 22 20 15 13 14 12 12 12 11 12 13 10 9 8 7 6 7 4 8 12 18
17 24 23 21 21 23 25 21 19 22 27 23 20 27 23 21 17 18 21 25 25 24 28 25 24 32 30 25 24 22 23 20 22 17 19 23 25 19 12 15 15 22 14 19 15 22 25 28 25 22 22 23 31 24 25 22 16 15 16 20 21 18 16 22 20 21 20 19 17 14 14 13 11 8 11 12 9 10 9 8 5 5 5 6 18 18
24 18 22 21 20 23 19 20 21 21 27 21 27 23 15 16 20 20 21 22 22 23 27 24 23 33 28 18 14 15 23 22 22 23 20 23 20 19 12 18 20 18 18 13 23 20 17 17 16 16 21 24 21 24 21 23 17 17 18 21 19 18 18 19 20 20 14 11 12 12 10 11 10 9 10 8 11 8 8 9 8 7 5 9 19 17
16 21 21 25 28 24 20 21 20 19 18 15 18 23 20 18 20 21 22 24 23 27 31 24 23 28 33 19 18 12 12 19 19 19 16 19 18 14 12 12 14 15 16 19 16 14 13 12 14 22 25 22 21 18 19 21 15 15 19 24 21 21 22 22 25 31 35 28 20 20 18 15 13 11 10 12 12 11 9 9 7 5 6 8 10 10
27 15 14 24 19 21 20 23 20 19 16 20 21 18 18 22 20 21 24 22 25 31 25 23 24 22 32 23 21 15 10 10 14 11 13 13 12 12 7 12 13 14 16 14 15 13 20 23 27 26 24 20 18 14 15 17 15 19 19 21 22 20 24 27 27 26 29 27 29 23 21 18 17 14 14 13 13 13 11 10 10 8 6 7 14 14
28 27 17 20 19 23 23 22 24 26 23 25 22 21 22 23 21 24 24 27 27 27 18 21 22 27 32 29 15 15 19 17 14 10 8 9 9 12 13 11 14 15 22 23 19 19 22 25 22 19 13 13 13 12 15 17 23 23 25 23 22 24 27 26 24 27 29 28 28 28 24 21 20 18 16 14 14 11 11 11 10 9 8 7 14 19
24 23 30 29 20 26 27 27 24 27 25 22 25 23 23 25 22 19 20 20 25 24 22 26 20 31 17 18 22 20 17 16 14 13 15 13 12 17 15 11 22 20 21 20 15 12 9 9 12 14 9 14 13 15 14 15 19 22 25 24 19 25 24 22 22 22 22 27 34 34 34 31 25 21 16 15 15 12 11 11 11 11 10 14 17 16
23 27 33 32 32 27 29 28 23 19 20 26 22 27 23 25 27 19 21 22 21 20 18 18 28 24 23 12 20 19 17 14 14 16 16 13 13 13 13 13 9 12 15 15 15 16 13 11 10 12 15 13 13 13 19 19 17 18 22 23 21 21 21 21 24 21 25 23 31 34 32 30 25 23 18 15 14 14 13 11 10 10 8 13 13 12
26 27 15 26 22 24 27 26 27 24 21 22 25 24 26 26 17 25 12 18 10 17 20 16 23 11 16 16 16 18 16 13 11 10 12 16 14 14 13 15 16 16 16 16 14 17 17 15 15 16 18 15 17 13 11 12 13 14 18 19 21 23 24 22 21 18 18 12 8 17 23 23 21 19 17 15 14 13 13 13 11 10 11 9 7 9
22 30 18 22 26 23 26 23 27 24 27 19 25 29 26 18 22 17 16 18 8 13 24 14 16 24 17 18 12 10 16 20 17 10 12 11 15 18 17 12 14 14 12 13 13 14 17 15 11 11 18 14 14 13 10 11 10 13 14 17 20 19 18 20 19 17 17 14 10 12 15 19 19 18 17 16 16 16 13 12 12 13 12 8 9 9
20 17 17 22 25 27 23 23 23 24 26 20 22 21 19 21 20 22 19 14 21 24 20 20 24 21 25 17 16 15 19 23 26 14 11 15 18 17 16 13 14 14 13 11 10 11 11 10 14 12 13 17 16 11 9 12 9 11 9 14 19 19 20 18 19 17 17 17 18 15 16 17 18 17 16 16 16 14 14 13 12 10 8 10 8 9
20 24 21 22 20 21 23 23 25 24 24 27 21 14 23 22 20 20 19 19 18 18 20 24 22 22 20 13 13 12 14 13 15 12 13 15 18 13 11 12 12 13 13 12 11 11 9 7 6 5 7 7 7 10 8 12 11 11 10 8 10 17 19 19 17 16 17 17 16 15 19 20 17 13 13 13 14 12 13 11 9 10 10 7 9 9
11 17 19 22 23 20 24 25 27 24 26 25 23 27 16 20 18 16 23 20 22 20 18 19 21 11 19 16 13 11 13 10 10 21 16 18 14 12 11 10 14 14 14 13 13 12 12 11 10 10 9 12 17 16 10 7 6 7 9 11 13 13 15 18 18 17 21 19 17 19 21 18 15 13 13 13 12 6 10 8 11 10 8 10 10 8
16 14 20 17 19 18 27 27 25 23 21 28 29 27 22 23 12 16 14 20 21 21 21 16 18 14 15 17 14 13 12 13 18 18 15 15 16 13 16 18 19 19 17 17 16 15 15 12 11 12 10 15 11 10 13 11 8 6 8 10 10 13 16 18 19 19 18 20 21 20 20 19 17 15 14 15 12 10 6 9 9 8 9 11 8 9
23 24 18 18 23 27 20 22 22 23 22 22 24 26 25 21 24 21 22 18 28 28 18 16 11 10 11 15 16 16 14 13 16 21 18 12 9 9 20 19 20 19 17 15 17 17 17 16 15 16 17 15 12 15 8 10 12 10 9 10 10 9 11 19 20 17 18 17 16 19 20 21 17 18 15 15 12 10 7 9 7 8 9 7 10 9
20 10 19 21 23 19 18 11 18 20 21 22 24 25 24 22 22 25 25 16 19 22 19 14 10 10 14 12 16 13 17 17 18 22 18 11 15 17 18 19 18 19 19 20 19 19 20 17 15 15 17 15 14 11 9 8 8 7 7 9 10 16 16 17 16 14 15 16 15 18 19 20 17 17 17 16 16 14 14 8 8 10 8 9 9 7
14 17 17 23 20 22 22 14 13 22 21 23 24 24 24 28 24 25 21 15 14 7 8 9 13 10 15 18 17 14 15 20 22 18 15 14 14 17 17 19 17 16 19 20 22 22 24 23 23 25 21 19 16 13 11 8 9 9 9 9 8 9 13 12 11 10 15 14 17 18 19 17 17 18 17 19 19 14 13 10 10 9 9 10 9 10
14 17 23 15 17 21 21 22 22 16 19 18 17 18 23 24 21 20 19 19 13 14 12 14 15 9 16 20 16 14 19 22 21 20 19 20 17 19 19 18 18 18 20 20 20 22 22 24 25 24 23 22 20 19 14 11 10 10 11 10 8 9 14 10 10 14 13 14 17 21 18 17 16 17 17 18 17 16 13 10 8 8 10 9 9 10
8 8 11 18 19 21 22 25 22 16 16 19 20 26 24 29 29 18 9 13 14 13 11 18 12 12 14 19 18 17 17 19 21 19 18 19 18 17 16 16 17 17 19 20 21 21 23 23 23 23 22 21 21 21 19 15 14 11 14 11 9 10 11 11 12 10 12 10 13 14 15 16 14 18 19 21 20 16 16 11 4 6 9 11 11 10
6 12 11 16 14 12 16 16 11 13 13 18 18 19 23 25 27 18 9 8 15 19 12 16 18 19 14 17 18 17 18 19 18 21 23 20 18 16 16 18 18 18 19 20 21 22 21 22 23 22 22 23 22 22 22 22 23 21 17 12 9 7 9 7 7 10 18 16 11 18 16 17 13 9 11 17 19 17 14 11 10 10 8 10 9 8
9 8 11 16 16 14 16 20 19 11 12 11 15 17 20 24 25 22 12 14 12 15 11 11 17 18 15 15 15 16 15 15 15 16 17 18 17 18 18 18 17 21 21 21 23 24 24 22 22 22 22 23 25 25 23 22 22 20 19 13 9 7 10 12 8 13 15 16 18 16 17 18 11 17 13 14 17 15 15 16 16 16 12 10 10 8
10 9 11 8 16 14 17 25 25 18 10 13 16 17 20 20 22 15 14 14 15 11 10 9 10 16 15 16 15 16 15 14 16 16 16 16 17 18 19 20 20 22 22 23 23 23 23 23 22 22 22 23 24 25 24 22 22 21 19 17 7 10 8 10 13 14 13 15 15 17 20 20 13 12 13 9 15 15 13 17 18 12 11 10 9 8
9 11 9 8 12 14 12 20 27 23 12 20 22 22 22 19 13 13 16 17 15 15 14 20 19 18 16 14 15 15 14 14 15 17 19 20 19 19 20 20 22 24 24 24 23 22 21 21 21 21 22 23 23 25 24 22 21 19 18 19 14 9 9 9 15 16 17 18 18 18 20 18 11 10 7 10 15 13 11 13 15 12 11 11 10 9
12 8 9 11 14 15 13 12 23 15 20 24 23 23 24 21 20 18 20 21 11 12 12 15 16 14 13 15 17 16 16 16 18 20 19 18 18 19 19 21 22 22 22 22 22 22 21 21 21 22 22 22 23 23 21 20 19 17 18 17 16 16 9 7 9 15 17 18 17 18 20 18 15 12 11 9 13 13 13 12 10 9 9 11 11 8
9 8 10 11 10 8 9 16 22 17 21 25 25 24 23 20 19 19 19 18 18 16 9 13 12 9 12 14 16 17 18 20 20 19 18 18 18 19 20 20 21 21 22 21 21 21 22 23 23 23 22 22 23 23 22 23 16 17 18 20 20 16 16 12 11 9 15 15 18 19 18 18 17 14 11 11 14 11 10 14 15 18 18 17 15 13
9 12 10 11 13 11 10 10 17 21 18 14 19 20 16 15 15 18 19 19 21 16 16 10 12 13 13 13 16 17 18 20 20 19 17 17 18 18 19 20 20 20 21 21 22 21 22 23 22 22 21 21 23 22 22 21 17 17 17 19 19 15 19 18 16 11 12 14 16 16 16 16 18 18 17 18 17 17 17 18 18 18 17 17 13 13
8 10 10 9 12 8 11 12 18 14 16 14 11 12 12 15 15 17 18 18 17 20 16 18 18 17 17 16 16 17 19 21 19 18 17 16 16 17 18 19 21 20 20 21 21 21 21 22 22 23 22 20 20 20 18 17 17 16 15 16 18 18 18 20 20 21 18 16 15 13 16 18 19 21 19 18 17 17 17 18 17 14 13 13 13 13
6 5 4 8 10 7 9 10 10 11 12 9 11 16 13 10 16 21 19 19 18 19 15 17 17 17 17 17 18 19 20 19 20 20 20 19 17 16 17 20 21 20 21 21 22 23 23 23 23 23 23 21 18 19 19 20 18 16 19 19 20 21 20 20 20 22 21 21 19 17 16 17 19 19 18 18 16 15 17 19 17 16 13 14 13 14
5 7 5 5 5 8 8 12 13 9 6 8 8 18 17 11 14 11 20 21 19 18 15 14 13 14 15 16 16 16 18 19 20 22 21 19 18 18 18 19 19 20 22 22 21 21 22 22 22 20 19 17 19 21 21 19 17 18 20 20 22 22 23 21 21 22 20 20 19 19 18 17 19 16 17 17 17 17 18 18 18 15 14 14 14 12
8 8 7 5 11 6 11 15 16 15 14 17 10 18 21 13 13 12 10 15 19 17 15 11 12 13 12 11 12 13 15 17 21 21 18 18 18 18 20 19 18 19 19 20 21 20 18 18 18 17 17 18 21 23 22 18 17 18 21 24 22 22 21 22 22 21 20 20 20 20 18 16 15 17 17 16 17 16 14 13 14 12 11 13 11 12
8 8 10 10 6 7 9 16 13 12 9 12 12 12 12 11 8 8 7 9 16 17 14 11 11 11 10 8 8 9 9 10 16 16 14 15 17 18 19 20 21 20 20 19 20 20 21 19 18 18 18 18 20 20 20 21 20 21 21 22 22 23 24 24 22 19 18 18 18 19 17 16 15 16 18 17 17 15 14 14 11 11 11 12 12 13
13 16 11 8 5 5 6 6 8 8 10 11 18 15 13 11 9 5 6 12 16 16 14 10 10 9 8 8 7 9 9 9 10 11 10 15 17 18 18 19 19 20 20 20 19 20 21 21 20 20 19 20 23 21 19 21 22 22 22 21 20 21 23 22 20 19 17 16 13 14 15 14 15 16 18 17 16 14 14 11 9 9 11 11 13 11
8 10 8 6 4 4 7 10 10 13 11 16 17 14 12 10 6 6 10 11 16 17 13 11 10 8 8 11 11 14 14 11 11 9 11 14 15 17 18 18 19 19 19 19 19 18 18 19 23 25 24 24 21 18 19 18 22 22 23 20 19 22 22 19 16 14 14 14 14 13 12 11 11 13 15 15 12 11 9 8 8 10 9 8 11 9
8 7 7 6 12 14 12 18 16 11 9 17 18 11 11 8 9 8 9 9 14 13 13 12 14 15 15 13 11 15 15 17 18 15 14 15 16 16 16 16 16 17 19 19 18 14 19 21 21 22 22 22 22 20 19 19 21 22 21 21 22 22 19 16 14 12 12 13 14 15 14 12 12 11 11 11 12 10 9 9 9 8 8 9 9 7
12 7 9 9 11 9 10 17 17 13 10 22 20 12 16 10 7 9 7 8 12 14 15 15 15 14 15 17 16 17 18 17 17 16 16 16 15 14 14 13 13 13 14 14 16 17 17 19 18 19 20 20 21 21 20 18 20 20 22 23 23 19 16 14 13 11 10 13 13 14 15 12 11 11 11 10 13 11 9 5 5 6 7 7 7 5
10 7 11 12 9 8 13 18 12 11 16 25 19 9 23 10 7 6 9 14 14 14 15 16 16 14 17 20 18 18 17 16 15 15 15 15 15 14 12 12 12 14 14 15 17 17 16 16 18 18 15 14 16 16 17 19 19 19 20 23 18 17 17 17 16 14 13 13 14 13 12 11 11 10 11 10 9 8 7 6 7 6 6 7 8 6
17 10 15 13 12 15 16 16 14 9 11 17 20 16 13 13 7 7 7 13 14 15 15 17 17 18 17 19 18 17 17 17 15 14 14 12 10 8 9 11 11 12 13 15 16 16 15 16 16 16 16 16 15 16 16 18 19 18 19 19 15 16 15 16 17 16 16 14 12 12 13 14 15 13 12 10 7 8 7 5 5 6 5 4 9 10
20 18 11 21 17 16 16 14 11 9 15 17 18 19 17 15 16 17 17 15 15 15 14 18 18 17 18 19 18 18 18 17 16 14 13 12 10 10 11 12 13 14 15 16 17 14 14 16 15 15 15 16 15 14 14 15 17 17 19 16 15 16 15 13 14 15 15 16 16 13 14 13 14 13 12 13 13 11 11 9 7 8 6 6 8 7
21 24 17 31 35 29 27 21 19 19 20 20 19 17 16 16 16 16 18 19 17 17 15 19 16 17 17 16 19 16 16 15 15 14 14 13 11 9 9 11 12 13 14 14 16 16 15 15 14 14 13 12 13 14 12 12 14 17 13 11 12 13 15 15 12 12 13 14 14 15 17 15 15 15 16 14 14 14 15 14 14 17 18 16 14 9
17 18 21 24 20 17 20 14 21 21 20 21 22 21 19 18 19 18 19 20 19 19 21 19 20 18 17 15 16 16 15 13 14 14 12 12 11 12 12 11 9 10 12 14 14 13 15 14 16 15 12 12 11 11 10 9 9 10 8 8 9 9 9 11 12 10 10 11 12 11 15 15 15 16 18 18 17 18 18 19 17 18 18 17 17 17
22 19 29 25 24 27 24 20 21 21 20 19 20 20 21 20 20 18 20 20 21 20 19 19 17 17 15 17 15 15 13 11 12 11 11 11 12 11 9 9 9 7 8 9 10 10 11 14 13 14 13 12 11 10 9 9 8 9 7 7 7 7 6 7 9 11 11 9 7 8 8 10 9 12 14 15 16 15 16 16 16 17 16 15 15 14
24 16 25 20 30 29 24 21 22 23 23 22 21 19 20 20 20 20 20 20 20 20 19 18 16 16 16 18 17 17 17 15 11 8 8 9 9 8 7 9 7 7 5 6 7 8 9 10 11 11 12 11 10 6 6 8 9 10 4 5 4 4 6 5 4 6 8 9 11 11 9 3 4 8 11 12 13 13 12 10 9 13 14 12 11 10
22 25 24 20 20 19 19 19 14 19 19 20 19 20 20 20 20 20 19 20 19 19 19 19 19 18 18 17 16 17 17 15 14 13 11 6 7 7 8 10 8 7 4 6 5 4 5 4 5 6 6 9 9 10 11 9 8 7 6 5 6 3 2 3 2 5 8 9 8 10 10 7 5 7 8 12 13 11 11 9 11 9 13 10 7 12
18 13 16 17 17 20 17 17 20 22 20 18 17 17 18 17 18 19 19 19 18 18 18 17 16 14 13 13 13 14 13 13 13 12 12 13 14 7 9 13 11 10 8 8 6 5 5 5 5 6 5 3 3 4 6 7 7 4 7 6 5 8 9 10 6 7 9 9 8 8 8 7 8 8 8 9 14 14 12 13 13 13 13 12 9 10
Wind_Speed
8 9 9 10 10 11 13 14 15 15 15 16 16 15 8 9 12 8 11 13 9 5 6 6 9 10 10 11 12 12 11 14 11 11 11 12 9 14 13 12 10 10 10 8 13 9 8 7 6 7 7 9 8 9 10 10 11 13 12 10 9 8 8 6 8 7 9 9 7 6 8 7 7 5 5 4 3 2 4 2 3 3 4 6 2 4
10 10 10 12 13 14 13 13 12 16 17 16 12 12 8 14 8 9 9 15 5 6 7 8 10 12 12 12 15 11 14 13 13 11 12 13 10 16 18 16 15 13 6 8 7 13 7 8 8 6 7 5 10 10 10 11 11 11 11 8 8 8 9 9 7 5 8 6 8 6 6 4 6 4 3 2 4 2 3 4 4 1 5 6 3 6
10 11 11 13 13 13 13 12 14 14 15 14 8 8 10 9 10 7 10 3 7 7 3 6 9 10 12 13 13 12 11 13 10 11 12 11 13 12 16 19 16 11 10 11 13 15 8 6 7 8 6 7 8 11 11 11 10 9 13 12 9 9 7 5 8 9 5 2 5 4 3 3 5 4 3 3 4 5 4 3 4 3 4 4 5 6
9 10 16 14 12 12 13 13 9 6 10 8 6 8 10 9 8 7 12 12 8 3 5 3 10 9 12 12 11 9 11 11 18 16 13 11 12 13 12 13 16 15 13 15 15 16 11 8 7 8 10 10 8 7 10 10 8 10 10 14 10 8 8 8 9 8 6 3 3 5 4 3 2 6 5 4 3 4 5 5 3 3 3 4 4 7
10 13 17 16 15 13 13 9 7 6 6 8 10 9 11 12 12 12 9 10 6 7 5 7 10 11 11 12 11 11 12 12 14 17 12 12 13 13 12 7 20 18 17 17 14 14 12 11 11 9 11 9 10 9 7 2 9 10 12 9 7 7 7 7 8 8 5 5 4 5 4 2 4 4 5 4 4 3 2 3 3 3 4 4 5 6
14 16 11 19 13 14 14 9 9 8 9 9 11 13 14 14 14 14 15 14 9 9 9 8 7 9 10 16 17 15 13 16 15 18 16 13 12 13 12 9 15 14 13 15 15 16 13 11 10 10 12 11 9 7 9 15 14 15 10 9 11 7 8 7 8 8 7 5 5 5 5 3 2 5 4 5 5 4 3 2 3 1 2 2 2 2
11 12 11 8 2 6 7 8 9 11 10 9 9 13 14 15 17 15 15 11 10 12 5 6 10 7 8 12 12 13 18 18 15 16 17 13 12 12 12 9 14 15 15 16 15 14 14 12 10 11 13 11 9 9 16 15 13 14 11 12 14 13 13 13 10 10 7 5 1 1 3 1 1 3 3 1 2 4 3 3 3 1 0 2 3 4
9 13 16 11 12 10 7 8 10 11 10 10 10 10 13 18 18 16 16 14 11 11 11 14 11 9 10 9 10 14 13 10 10 14 16 15 11 12 12 11 8 15 17 15 15 17 16 15 15 14 14 7 11 14 12 11 9 12 11 12 12 10 10 10 11 12 10 9 7 4 0 2 4 4 4 4 4 3 4 4 4 3 1 3 2 4
10 12 12 10 13 10 10 10 11 13 11 8 10 14 14 13 9 8 7 9 10 10 11 10 13 11 10 10 13 13 13 10 12 11 11 11 9 11 5 3 7 13 4 4 4 10 13 14 15 13 4 14 15 10 9 9 7 8 8 10 10 10 10 13 13 13 9 6 6 6 5 6 6 2 4 3 3 4 4 4 3 2 1 2 2 2
9 10 12 14 8 9 10 11 12 12 12 11 15 15 5 5 8 10 9 9 9 10 11 11 9 11 11 8 5 6 11 11 9 11 10 8 12 10 7 12 12 10 4 2 7 7 8 7 3 10 13 10 12 11 12 14 11 10 10 12 12 12 10 12 14 13 10 7 8 7 7 8 6 4 4 4 4 3 4 4 3 3 2 2 2 1
9 11 11 10 11 10 7 12 12 11 11 6 10 12 10 8 8 9 8 9 8 9 13 13 13 12 11 7 6 3 0 9 8 6 7 10 11 8 8 8 8 8 9 8 1 6 6 5 10 15 16 14 10 8 9 10 9 6 9 10 13 13 10 12 16 20 23 19 13 12 12 11 9 7 6 6 5 4 4 5 4 3 2 2 4 4
16 7 2 9 12 10 11 12 11 10 6 9 8 6 6 8 8 8 8 9 7 10 12 13 13 13 12 8 8 6 2 4 8 6 8 8 7 5 4 6 6 6 8 8 4 9 13 13 14 14 13 11 9 8 5 6 7 8 10 11 13 12 13 14 15 13 13 14 18 15 15 12 11 9 7 8 8 7 6 5 5 4 3 2 4 1
14 13 9 11 2 8 7 10 9 12 11 10 9 8 8 7 5 7 7 8 9 8 8 11 13 11 12 11 6 8 8 10 8 3 2 2 3 5 7 6 8 9 14 10 8 6 6 5 7 10 8 6 9 6 4 7 9 11 12 14 13 14 17 16 13 16 18 17 16 17 16 14 12 11 10 8 8 7 6 5 6 5 4 3 3 4
10 12 14 14 11 12 13 11 9 12 12 11 10 9 8 7 7 6 7 5 7 10 11 12 11 12 6 4 12 10 8 9 9 6 2 1 3 8 8 4 5 6 9 9 7 5 2 3 6 8 4 5 6 3 4 5 10 12 13 14 12 16 15 13 13 14 14 14 16 21 20 18 14 12 10 8 8 7 6 6 6 5 5 5 5 5
9 11 12 16 12 15 12 13 11 8 7 10 9 10 9 8 6 5 7 6 8 5 7 11 9 6 12 5 6 8 3 8 8 9 10 9 8 6 5 4 5 6 8 7 5 5 4 3 5 5 5 5 0 8 10 10 10 9 13 11 11 12 12 10 12 11 12 10 5 7 15 17 14 13 10 8 7 8 8 7 6 5 4 5 7 7
13 10 6 14 13 11 13 13 15 14 10 9 10 10 11 9 5 9 2 7 2 4 6 5 4 4 2 6 8 7 8 5 2 3 10 9 7 4 3 8 9 9 9 9 3 3 5 7 5 5 3 1 4 6 7 8 7 8 9 11 12 12 12 12 11 9 8 5 0 3 2 9 11 10 9 7 7 7 8 8 7 6 5 4 4 5
7 10 10 12 17 14 12 11 13 12 10 7 10 11 11 9 11 4 4 8 2 3 7 3 5 7 8 2 4 4 10 13 12 5 3 6 4 4 5 6 6 6 6 6 6 7 10 7 3 3 7 5 7 8 6 6 7 7 7 9 11 10 7 8 7 4 5 5 5 4 4 6 8 10 10 9 10 9 8 7 6 6 6 4 5 5
7 7 9 11 14 13 13 14 13 13 12 6 8 7 10 12 10 6 5 3 6 8 4 6 9 8 8 1 7 9 10 7 7 5 6 9 8 8 8 6 4 4 5 5 5 6 6 6 10 8 8 11 10 7 6 6 3 4 4 7 9 8 10 8 9 8 7 7 8 7 7 8 8 8 9 9 9 8 7 6 6 5 5 6 5 5
9 9 9 13 12 11 13 13 13 14 14 13 6 6 9 5 8 6 3 6 7 6 3 7 11 2 4 4 5 4 4 5 2 1 8 7 7 5 5 6 2 2 6 6 6 5 4 4 3 2 2 2 5 7 4 2 2 4 2 2 6 8 6 6 6 7 7 8 7 7 10 10 8 6 7 8 9 7 7 7 5 6 6 5 6 5
1 5 5 11 13 10 11 11 10 10 12 15 11 11 7 7 6 5 4 7 5 6 5 7 11 2 4 3 6 6 7 2 4 13 8 8 7 7 6 3 4 7 8 7 7 6 6 6 6 6 5 7 11 10 6 3 1 4 2 2 1 3 5 5 6 6 8 8 7 8 8 9 7 7 8 8 8 5 6 4 6 6 5 6 5 5
4 6 6 7 9 7 8 7 11 10 9 12 11 11 8 6 4 4 3 8 6 4 6 4 5 3 4 7 8 6 5 8 11 10 8 6 5 4 4 5 7 9 9 9 9 8 9 8 7 7 7 8 5 4 5 3 3 1 3 5 1 3 7 7 8 8 7 7 7 8 9 9 7 7 8 8 7 6 1 5 5 5 5 6 5 5
4 9 5 7 9 10 8 10 14 13 10 10 9 10 11 9 9 9 8 4 6 4 2 4 1 3 3 6 8 9 8 8 10 13 7 5 3 5 8 9 11 9 10 9 10 10 10 10 9 9 9 7 5 2 3 5 3 4 5 3 2 4 5 9 8 6 7 7 8 11 9 11 8 7 9 9 7 6 1 4 4 4 6 5 6 4
6 2 5 6 8 8 10 6 4 9 11 12 10 10 10 9 8 8 9 5 8 4 8 2 1 1 5 6 9 4 4 7 9 11 7 6 5 9 9 9 10 11 12 12 12 12 12 11 9 9 10 9 7 6 4 4 4 2 2 2 2 5 3 3 3 5 6 6 8 9 8 8 9 8 10 10 9 7 5 3 4 5 5 5 5 3
9 1 4 8 7 10 12 7 3 8 11 10 11 10 10 11 10 10 8 4 4 2 2 1 1 4 7 9 8 6 10 13 9 8 9 8 8 10 10 11 11 10 12 13 12 12 13 14 14 14 13 11 9 8 6 5 4 4 2 1 2 1 2 2 1 2 4 4 6 9 11 8 8 9 10 10 8 5 7 4 6 4 5 5 4 4
3 2 7 4 2 6 10 9 8 6 7 5 3 7 12 13 12 8 9 7 2 5 5 5 2 2 7 6 9 8 11 12 12 12 10 11 10 10 10 11 10 11 12 12 12 13 14 15 15 13 13 12 11 11 8 6 6 5 6 5 3 4 5 5 6 5 4 6 8 10 10 10 9 9 9 9 8 8 7 7 5 4 6 5 5 3
1 3 3 4 6 7 4 6 5 3 5 5 5 11 12 17 19 9 2 5 3 3 7 3 3 5 6 6 11 10 10 10 10 9 10 12 11 10 9 9 10 10 11 12 13 13 14 13 13 14 14 12 12 12 11 9 8 7 7 6 5 4 4 6 4 2 4 0 3 6 9 10 9 8 7 9 6 7 9 6 3 4 5 4 5 5
1 3 2 3 2 2 2 6 5 5 5 5 8 11 11 13 15 10 2 2 2 8 3 7 8 9 7 9 11 10 9 10 11 12 13 11 11 10 10 10 10 10 11 13 13 13 13 14 14 13 14 13 14 14 12 13 13 12 9 6 4 3 2 2 3 4 7 2 5 4 5 7 7 5 6 8 12 9 8 6 4 2 3 5 5 5
2 1 1 3 4 5 5 7 12 5 6 5 8 10 12 13 12 12 5 3 4 3 1 5 11 6 6 9 8 9 9 9 9 9 10 10 10 10 10 11 12 12 13 12 14 15 15 14 14 14 14 15 15 14 13 12 11 11 11 7 5 3 4 4 5 8 9 6 6 8 5 8 5 8 7 5 8 9 9 8 4 1 0 5 5 3
1 2 2 3 3 6 2 8 12 11 2 5 9 11 13 12 14 9 8 7 2 3 2 2 5 6 7 8 8 9 9 9 9 10 9 9 10 11 12 12 12 13 14 14 14 14 14 14 13 14 14 14 15 15 15 12 11 10 10 10 1 1 1 5 4 5 6 7 7 9 10 10 2 2 8 5 8 6 8 10 7 2 4 6 4 3
1 2 2 1 3 5 5 5 3 12 3 11 13 13 13 12 9 7 9 9 8 9 9 12 12 11 8 8 9 9 8 8 9 9 10 12 12 12 12 13 13 14 15 15 14 14 13 13 13 13 14 14 15 15 14 13 12 11 10 10 8 2 3 1 3 5 8 6 6 8 12 9 5 3 3 5 9 7 6 8 10 7 5 4 4 4
4 1 4 4 5 5 3 3 3 1 6 12 14 15 15 13 12 11 12 13 7 7 6 9 10 8 6 8 9 9 9 9 10 12 12 11 11 12 12 13 13 14 14 14 13 14 13 12 13 13 13 14 14 14 12 10 9 9 9 10 9 9 4 3 6 6 5 9 9 9 9 9 5 4 7 2 7 7 8 7 6 5 6 7 6 4
3 1 3 3 2 3 2 2 8 8 11 16 16 16 14 13 11 10 8 7 9 8 3 4 6 3 6 8 9 10 10 11 12 11 10 10 12 12 12 12 13 13 13 13 13 13 13 14 14 14 13 13 14 14 13 12 9 9 10 12 12 10 9 6 5 3 10 9 10 9 10 9 7 5 2 2 6 6 6 8 9 10 9 8 8 8
1 3 2 3 3 3 4 3 8 4 6 6 10 11 10 10 9 10 11 12 12 10 7 3 5 6 7 7 9 10 11 12 12 11 10 10 11 11 12 12 12 13 13 13 13 13 14 14 14 14 13 12 12 12 13 12 10 10 10 11 11 9 11 10 8 5 4 8 9 9 9 10 10 9 8 8 9 10 10 10 9 9 9 9 7 8
1 3 3 0 3 2 4 5 7 2 2 4 3 6 7 9 9 11 10 10 11 10 7 8 9 9 10 9 9 9 11 12 10 11 10 9 9 10 11 12 13 12 12 12 13 13 13 12 12 12 13 12 12 11 10 10 9 9 9 9 10 10 10 11 11 12 10 10 8 7 9 10 9 9 9 9 9 10 10 11 10 8 7 7 7 8
1 1 0 2 2 1 4 5 3 2 3 3 4 8 6 5 11 14 12 12 12 12 9 10 10 10 9 9 9 11 11 11 12 12 12 12 10 9 10 13 13 13 13 13 13 13 13 14 13 14 14 13 11 12 11 12 11 9 11 11 11 12 12 11 12 12 12 12 11 10 9 10 9 10 9 10 10 9 10 10 10 10 8 8 8 8
1 1 0 0 1 1 2 3 3 4 1 2 3 10 10 5 6 6 12 13 12 11 8 8 7 7 8 9 8 8 11 11 12 13 13 12 12 11 10 11 12 12 13 12 13 13 13 13 12 12 12 10 11 12 12 11 10 11 12 12 13 13 13 13 12 12 12 12 11 10 10 8 9 9 9 10 11 10 9 9 10 9 9 9 8 7
3 2 1 1 4 1 3 6 7 7 5 8 2 8 9 5 6 5 4 7 10 9 7 5 6 6 6 6 7 7 8 9 11 10 10 10 11 11 12 12 12 12 12 12 12 12 11 11 10 11 10 11 13 13 13 11 10 11 12 14 13 13 13 13 13 12 11 12 11 10 10 10 9 9 10 9 10 9 7 8 8 7 6 8 7 7
2 2 3 2 1 1 3 6 4 4 3 5 7 6 6 4 3 4 1 5 9 9 7 5 6 5 4 3 3 5 5 2 8 8 8 10 10 11 12 12 13 13 12 12 12 12 12 12 11 10 11 12 13 13 12 13 12 12 13 13 13 13 14 14 13 11 10 10 10 10 9 9 9 9 10 10 9 9 8 8 6 6 6 7 7 7
6 6 3 0 1 2 1 1 1 2 5 3 9 8 5 4 4 1 2 5 7 9 6 5 5 4 3 2 4 5 3 3 4 4 6 8 10 11 11 11 11 11 11 12 12 12 12 12 12 12 12 12 13 12 12 13 14 13 13 13 12 12 14 13 12 11 10 9 8 7 8 8 9 9 10 10 8 7 8 7 5 6 7 6 6 6
2 2 1 1 1 1 1 3 4 4 4 8 10 7 6 5 0 1 3 3 8 8 7 6 5 4 5 6 5 7 6 5 5 4 5 8 9 10 11 11 12 12 12 11 11 11 11 11 13 15 15 15 13 10 11 11 13 14 13 12 11 13 13 11 9 9 8 8 8 7 7 6 7 8 9 9 7 6 6 4 5 5 4 4 4 4
2 2 1 1 4 6 8 6 5 4 2 10 11 6 6 4 1 1 3 3 5 7 7 7 9 9 7 7 5 6 8 8 8 7 8 8 9 10 10 9 9 10 11 11 11 10 10 11 11 13 13 11 12 11 10 10 12 13 12 12 13 14 11 10 8 7 7 6 8 8 7 6 6 6 6 6 5 5 5 4 5 4 5 5 4 4
4 2 2 4 4 4 3 6 5 4 3 12 11 6 8 3 2 3 2 4 6 8 9 9 8 8 8 9 8 8 9 9 10 8 9 9 9 8 8 8 8 7 8 9 10 10 9 10 10 11 11 11 11 11 11 10 11 12 13 14 14 12 10 9 7 4 5 7 8 8 7 6 6 5 6 5 6 6 4 3 3 4 4 4 4 3
3 2 3 3 1 2 1 5 3 4 5 14 12 2 13 3 3 2 4 8 8 8 9 9 8 8 9 11 11 11 10 9 9 9 9 8 8 8 7 7 7 8 9 9 10 11 9 9 10 9 8 8 10 9 10 11 12 10 11 14 12 9 10 9 9 7 6 6 7 8 8 7 6 6 5 6 5 4 3 3 3 3 4 4 3 4
8 1 4 3 4 4 5 5 4 3 4 10 10 6 6 6 3 3 3 6 7 7 7 8 9 9 9 10 10 10 10 11 9 7 7 7 5 4 5 6 6 7 7 9 9 9 9 9 8 8 9 8 8 9 9 11 11 11 12 12 9 9 9 9 10 10 10 9 8 6 6 7 7 7 7 6 4 4 4 3 3 3 1 2 5 5
10 6 3 7 5 4 4 5 5 5 7 8 9 10 9 8 9 9 9 8 7 7 8 9 10 9 9 11 11 10 9 9 9 8 8 7 6 6 7 8 8 8 9 10 10 9 8 9 9 8 8 7 8 8 8 9 10 11 12 9 8 10 9 8 8 8 9 9 9 8 7 7 7 7 7 7 8 7 6 6 4 3 3 4 5 4
8 10 7 11 13 14 12 11 10 10 10 11 10 9 9 9 9 9 10 9 9 9 8 9 9 10 10 9 10 9 9 9 9 9 8 7 6 5 5 6 7 7 8 8 9 10 9 9 8 8 7 7 8 8 7 7 8 10 7 6 7 8 9 9 8 7 7 7 7 8 9 7 8 10 10 9 8 8 8 7 8 8 8 8 7 5
9 9 8 8 10 6 7 7 12 12 12 13 12 12 11 10 10 9 10 10 10 10 11 11 11 11 10 9 9 8 8 7 8 8 7 6 6 6 6 5 4 6 6 7 8 8 8 9 9 9 8 7 6 6 5 5 5 4 3 5 5 5 5 6 7 6 6 6 6 5 6 7 5 6 7 7 6 6 6 7 7 7 8 7 6 7
10 10 13 13 13 10 10 12 12 12 12 11 10 10 11 11 11 10 10 10 10 10 10 10 9 9 8 10 9 9 8 6 6 5 6 6 6 5 4 5 4 3 4 5 5 5 6 7 7 7 8 7 4 4 4 4 4 3 2 2 2 2 2 3 4 5 6 6 4 3 3 5 7 7 7 8 8 6 6 7 7 8 7 7 6 5
9 6 7 9 11 13 14 13 13 14 14 13 12 11 10 10 10 11 11 11 11 11 10 10 9 9 9 10 10 10 10 8 6 5 4 3 3 3 2 3 3 3 1 3 3 3 4 5 6 7 6 7 6 2 2 3 3 4 1 2 2 2 3 3 2 4 4 6 6 7 6 3 3 5 6 7 7 6 6 4 4 6 6 5 4 4
10 11 11 9 9 8 8 9 8 7 7 9 12 12 12 12 11 12 11 11 11 11 10 11 11 10 9 9 9 8 8 8 8 7 6 2 1 2 3 4 4 3 2 2 2 0 1 0 2 2 3 4 4 5 6 3 2 2 2 0 2 2 2 2 1 3 3 3 4 5 6 4 2 2 5 6 5 5 5 8 9 6 6 3 5 10
8 6 7 7 7 8 9 10 12 12 10 9 9 10 11 10 11 11 10 11 11 11 10 9 9 8 7 7 7 7 7 6 6 5 5 5 5 2 3 5 5 4 4 5 3 2 1 2 1 3 1 1 0 1 2 2 3 2 4 3 2 5 5 7 4 3 2 4 3 4 4 1 2 1 2 4 8 5 5 5 7 12 10 8 7 8
Wind_Direction
181 215 213 213 225 223 216 230 241 241 252 265 281 290 255 244 254 262 238 156 204 236 222 246 247 245 256 259 246 246 201 193 214 244 249 239 173 147 155 167 158 167 231 313 301 258 243 219 208 214 215 195 189 181 187 191 185 137 159 150 142 104 124 184 175 163 140 130 140 175 172 172 178 191 167 175 127 146 164 136 126 77 33 47 61 286
212 219 224 220 221 232 226 218 238 258 262 270 296 307 284 271 265 205 238 162 206 251 215 218 249 265 263 250 261 274 283 252 193 213 244 244 205 160 172 166 166 172 133 103 334 280 233 229 210 213 231 217 190 193 195 198 187 136 121 126 122 139 160 184 159 100 107 145 164 173 169 152 159 159 141 191 151 143 118 126 125 160 103 116 118 263
209 224 226 231 229 228 244 238 215 233 256 266 265 272 267 262 281 286 249 158 164 172 251 269 280 276 262 253 258 261 251 269 269 199 214 237 244 201 181 174 160 153 158 146 197 238 233 215 224 220 231 238 204 199 205 201 174 119 127 141 138 165 148 106 53 58 45 96 152 150 99 173 145 139 185 151 131 154 147 138 118 145 152 136 173 209
211 218 228 229 236 237 235 236 257 253 251 262 238 236 251 259 255 235 250 178 170 251 312 317 278 270 269 276 272 251 233 240 259 259 202 222 243 247 224 191 148 159 159 179 192 215 200 197 204 221 223 225 231 222 205 204 162 123 116 128 165 125 88 79 107 124 141 119 62 50 94 288 143 146 130 131 145 124 139 150 145 149 154 152 200 224
219 230 216 216 217 229 235 232 221 242 257 235 255 253 245 247 246 266 290 270 234 204 201 277 274 263 265 271 267 256 265 268 264 267 233 203 233 246 234 223 151 161 174 184 193 199 190 182 200 215 222 217 220 227 234 189 75 94 101 100 90 88 99 126 107 108 101 94 92 88 71 47 80 79 120 140 128 123 111 115 111 139 178 195 211 228
238 243 257 203 208 219 229 217 208 231 242 253 231 240 255 260 267 254 244 265 260 228 191 207 257 259 242 238 243 253 246 232 229 257 258 207 221 242 241 199 156 164 174 177 183 193 188 196 207 216 221 224 221 222 45 62 88 84 90 92 92 71 79 85 126 132 122 134 151 134 123 162 164 151 164 174 159 144 148 137 102 122 271 291 293 296
232 245 247 278 242 260 199 219 221 210 243 244 238 220 232 248 260 272 282 278 268 259 236 228 253 271 261 247 246 241 231 232 220 221 246 236 209 226 239 235 167 176 177 179 183 169 181 196 205 225 227 219 219 83 88 66 85 111 117 125 133 146 148 151 139 128 108 101 56 38 80 79 251 177 177 157 107 124 115 106 118 155 323 351 345 328
217 244 249 199 215 227 231 224 226 228 225 239 258 249 216 216 219 236 250 256 274 305 305 278 283 292 281 276 285 280 288 271 262 222 214 240 233 215 221 229 190 186 180 189 186 175 182 186 195 212 225 221 65 74 86 119 132 136 136 133 147 154 138 129 126 138 158 156 155 126 81 303 223 218 168 156 142 125 119 143 138 164 119 62 31 5
190 222 241 201 232 237 230 237 234 220 235 242 232 238 259 297 313 298 274 262 262 266 257 247 255 252 245 256 260 266 265 250 250 277 251 207 231 254 235 260 15 18 60 198 172 178 178 194 199 204 175 74 92 111 110 105 113 106 130 142 148 134 141 157 141 133 153 148 137 139 176 216 234 182 138 138 111 144 133 124 132 123 123 148 141 120
196 231 231 212 190 214 231 238 234 225 220 227 263 281 329 280 259 262 263 261 252 244 245 252 251 261 262 263 258 260 267 264 237 222 262 258 218 256 11 21 359 342 335 173 233 184 170 177 175 54 63 72 86 105 111 122 144 154 149 159 147 147 153 137 138 128 118 142 157 166 168 185 201 162 150 156 154 154 139 150 144 134 104 241 96 147
244 177 245 242 230 255 248 240 242 233 240 255 235 252 225 205 239 245 256 267 278 250 254 249 250 257 276 275 286 290 198 80 51 61 75 37 30 26 20 17 10 325 330 322 290 163 134 90 45 65 66 83 91 103 134 135 126 156 161 155 151 160 154 152 155 163 162 165 162 171 173 177 182 171 166 157 155 155 156 159 132 126 119 61 57 -0
254 174 226 238 220 212 211 243 213 254 230 223 251 235 265 239 221 233 234 225 235 250 258 261 247 234 257 245 244 140 129 121 93 61 37 39 27 11 28 13 341 323 314 2 75 53 45 47 51 64 73 86 98 116 134 107 125 169 157 162 158 161 162 175 181 169 163 165 162 168 165 171 174 174 173 168 163 164 160 154 129 132 125 109 104 202
239 238 202 250 274 281 237 247 237 204 217 215 231 227 226 235 231 226 213 227 224 245 246 247 253 251 238 261 250 94 71 74 73 59 68 57 29 6 11 11 352 -0 39 33 22 32 46 67 80 85 107 106 105 124 152 153 182 164 165 172 164 166 178 188 175 177 179 183 169 158 163 170 168 175 174 166 159 159 150 144 142 154 134 125 137 178
215 239 218 211 219 193 240 229 225 225 199 210 217 219 219 234 234 230 232 240 255 245 245 249 267 259 270 55 41 70 52 41 52 84 284 295 27 21 346 17 29 54 66 59 20 4 20 10 69 91 73 85 118 124 159 181 194 182 176 175 167 174 189 186 184 187 188 197 183 169 165 167 165 166 169 164 154 151 142 145 155 153 155 167 176 194
222 199 222 210 192 162 213 238 238 244 193 217 233 233 225 235 235 230 226 244 247 287 328 306 248 239 251 90 123 90 53 36 25 41 25 344 46 65 289 45 11 61 92 91 48 344 341 45 100 120 113 86 219 173 189 193 181 178 170 173 167 178 194 189 191 193 197 190 265 272 170 156 156 157 159 159 154 147 139 150 148 167 175 187 187 183
226 244 211 235 276 167 197 219 247 252 232 208 219 227 240 232 239 267 253 249 303 313 276 253 283 303 32 171 124 134 114 103 65 59 58 354 25 3 4 30 32 36 51 84 79 284 335 344 5 54 48 61 251 216 194 188 181 174 173 175 172 175 182 190 196 201 196 177 112 227 193 139 142 144 145 139 147 148 147 152 159 170 196 200 157 126
226 245 241 210 224 233 186 211 224 244 252 186 211 221 229 240 247 227 258 276 242 243 255 279 272 308 69 209 71 100 92 41 6 53 122 107 46 40 41 43 350 48 54 75 108 121 152 160 82 181 180 217 235 226 207 196 192 182 163 163 168 169 170 185 196 181 179 150 136 146 135 140 143 146 146 145 151 152 154 151 176 179 196 168 121 133
239 219 215 252 213 221 239 197 223 221 241 261 236 234 231 231 255 245 261 217 221 241 245 214 236 221 190 191 35 65 51 58 64 338 58 56 59 48 32 54 335 25 46 57 71 100 108 122 157 184 177 187 197 206 221 193 177 150 155 164 163 171 173 181 185 180 174 157 161 160 150 148 148 151 145 142 146 153 155 164 189 183 144 128 134 121
225 244 211 225 235 203 222 237 218 223 221 243 242 234 246 184 219 231 246 238 242 237 254 243 243 7 21 111 193 65 91 79 175 217 50 50 49 32 32 8 288 6 62 52 49 49 59 66 96 101 141 140 195 207 210 182 126 131 101 129 160 159 177 184 188 175 168 167 166 167 158 156 150 139 133 133 144 155 161 174 167 129 119 115 113 118
105 284 238 235 219 194 216 218 234 217 205 228 239 239 228 273 256 234 211 250 258 255 233 233 251 97 350 26 3 85 100 137 127 70 33 46 9 4 16 28 337 29 38 42 40 34 35 40 25 28 26 20 23 6 12 19 7 52 37 338 350 138 173 175 196 186 176 172 163 158 155 153 146 131 121 122 122 117 158 138 122 121 122 119 113 115
230 159 265 270 238 170 221 203 231 225 222 202 213 241 226 235 265 243 240 241 240 252 259 282 240 50 332 341 17 52 61 72 82 85 80 68 47 348 56 1 34 39 35 32 36 34 34 27 31 42 46 66 56 35 28 23 11 92 169 108 73 238 191 193 209 192 173 164 167 156 159 147 145 121 119 118 115 82 353 109 108 119 122 114 121 131
202 160 219 241 219 221 233 209 227 234 222 225 221 222 231 223 221 220 235 169 238 266 278 270 306 123 46 346 29 358 17 60 87 111 109 76 210 107 65 49 39 33 31 33 36 34 34 31 39 35 37 56 78 54 55 14 47 15 11 38 198 207 213 178 189 203 186 182 174 168 165 149 143 131 130 126 112 113 344 104 128 126 115 125 126 157
339 257 204 237 236 229 222 190 293 300 270 240 225 234 234 239 241 239 251 212 215 227 272 67 88 134 266 39 40 10 24 75 108 109 111 132 110 75 67 59 45 30 28 25 29 26 28 27 29 31 27 29 44 64 46 7 20 19 328 338 178 205 254 292 165 178 203 199 179 157 149 150 141 138 131 129 138 131 160 171 132 127 121 124 141 171
353 300 217 249 253 252 271 261 290 287 282 255 234 241 228 232 236 249 252 310 249 112 196 54 224 114 77 51 71 25 3 28 32 62 82 66 65 60 50 45 41 37 32 26 23 22 19 14 17 16 14 19 14 18 32 359 341 345 343 321 307 35 73 216 182 181 249 208 200 153 155 152 145 140 140 147 140 142 160 169 137 137 132 133 164 155
286 214 253 252 266 268 242 228 221 242 278 258 340 335 340 341 318 327 301 122 205 199 160 125 248 123 42 43 49 43 44 37 28 32 30 51 53 51 42 38 37 32 31 30 26 21 21 19 17 14 9 9 4 359 5 1 348 346 351 354 346 91 122 150 158 169 199 237 208 153 147 143 146 147 147 139 141 165 151 143 138 147 137 147 146 126
267 13 325 236 231 225 215 238 229 229 260 343 328 17 6 4 356 320 329 15 286 174 200 222 128 105 101 70 71 53 38 40 39 34 40 38 41 48 48 48 44 36 31 31 28 26 24 20 16 14 8 2 2 4 5 0 357 355 8 8 38 42 166 179 154 102 158 306 291 144 143 143 147 145 143 137 146 152 136 122 117 132 148 145 124 113
49 17 327 329 318 300 308 289 318 253 299 295 357 9 16 8 6 347 57 64 31 329 308 31 111 128 107 65 55 60 50 38 24 25 35 31 20 32 51 46 43 40 34 29 29 26 22 21 18 11 8 1 1 5 6 11 9 5 358 3 51 124 120 52 118 148 119 77 139 126 128 114 84 94 149 159 155 152 124 106 95 100 131 130 104 111
12 307 340 13 349 300 326 319 283 289 298 25 22 17 22 31 22 13 357 78 126 341 10 5 105 100 75 59 53 57 56 49 43 31 28 24 19 14 34 46 40 39 35 33 30 26 20 17 14 12 8 3 3 5 6 7 7 359 355 350 38 83 99 72 65 108 127 152 136 140 121 87 90 102 91 249 129 117 118 120 112 193 272 101 114 146
234 251 90 59 312 303 173 258 315 290 269 50 57 42 32 43 35 20 31 8 59 100 134 98 92 107 68 52 48 50 50 51 43 44 36 31 27 22 30 33 35 37 33 32 31 29 23 17 11 10 9 5 5 9 6 2 358 1 350 341 62 61 39 132 159 123 127 143 136 132 116 112 114 263 148 168 121 130 134 136 132 232 119 112 146 152
280 246 142 115 282 269 246 245 134 299 33 59 50 49 55 60 61 46 39 23 55 88 91 91 83 69 55 58 52 48 47 50 47 40 37 31 27 25 26 29 29 29 27 26 26 25 24 21 15 12 11 9 9 10 8 359 359 359 350 346 8 354 144 91 152 146 149 140 122 121 134 143 135 142 91 121 135 133 124 121 135 167 133 123 90 79
263 130 139 236 252 256 282 264 178 335 94 64 46 40 45 59 59 42 40 21 25 64 102 117 102 84 69 63 57 49 44 44 46 43 38 32 26 27 28 29 30 28 26 26 24 25 23 22 19 16 16 14 12 15 10 356 345 350 351 351 360 14 322 227 155 168 153 125 131 138 130 120 108 89 76 254 130 133 120 119 111 100 85 70 65 56
244 220 210 260 256 230 102 24 2 133 90 66 40 30 32 36 51 40 44 18 20 357 320 160 75 90 104 80 67 55 50 43 41 35 35 32 28 29 30 30 32 30 28 27 26 26 26 24 21 18 15 15 14 13 14 8 348 354 358 352 353 1 26 37 25 123 121 120 118 117 109 118 126 107 116 219 86 89 103 86 77 81 77 74 65 58
261 284 250 232 248 269 95 65 68 171 120 55 28 11 14 44 59 66 47 34 15 354 38 43 71 71 84 79 72 54 51 46 43 33 28 32 34 34 33 33 35 35 33 31 31 30 30 28 25 22 18 18 16 10 10 11 4 5 360 1 358 358 40 40 25 42 86 92 91 92 88 86 88 90 90 72 73 75 74 83 82 81 81 77 75 68
307 282 266 0 263 83 49 65 81 84 171 60 348 16 355 35 55 71 52 35 23 21 59 53 56 61 66 64 66 65 55 49 46 43 40 38 38 37 38 40 40 40 39 37 37 36 33 31 28 24 19 17 12 3 356 12 17 13 9 13 10 22 32 49 40 41 36 48 53 68 87 80 77 81 78 76 79 83 81 83 78 74 74 80 77 76
252 292 274 30 258 205 119 130 129 190 86 170 38 30 18 53 83 84 70 44 29 25 44 59 62 65 75 82 85 81 75 64 55 52 45 42 46 46 41 40 39 39 40 39 38 37 36 33 29 26 20 12 6 8 6 16 14 13 21 19 23 25 31 35 45 41 42 42 35 46 61 80 80 82 83 84 75 70 78 82 82 74 64 73 74 79
183 217 156 190 226 109 192 182 209 85 163 155 38 34 13 29 29 107 69 43 32 26 31 66 67 81 93 99 102 105 95 84 67 52 52 48 43 43 42 39 35 31 34 34 36 37 38 36 30 25 22 13 18 17 15 12 12 26 29 26 30 32 32 30 37 39 37 41 34 35 40 52 68 75 80 78 73 64 58 62 71 71 66 58 54 57
292 207 262 91 331 97 35 53 85 138 123 41 32 14 18 359 354 6 59 47 28 25 21 62 83 84 87 110 125 135 133 92 61 44 38 47 52 50 50 47 40 35 33 31 31 33 36 36 34 32 28 27 27 25 17 8 17 28 33 32 24 32 35 33 32 34 37 46 40 33 37 39 46 60 66 61 69 71 61 63 70 74 78 77 69 74
126 293 352 306 169 317 111 114 135 180 100 48 16 350 358 29 327 321 180 100 28 24 26 41 76 81 91 109 147 176 217 332 52 42 30 53 59 62 55 52 48 42 35 28 27 31 31 31 31 35 38 35 34 29 23 20 24 30 35 33 25 32 36 35 29 21 30 43 46 40 42 49 55 63 66 65 58 59 57 51 46 69 75 78 79 71
71 42 58 350 71 90 73 102 56 89 86 19 345 344 343 358 352 85 217 79 18 10 24 36 64 68 81 64 4 336 289 112 74 66 34 39 40 40 45 39 39 40 38 33 28 29 27 29 34 33 31 35 40 30 28 30 29 35 32 29 25 28 35 34 29 17 14 25 42 52 55 58 59 58 74 78 68 66 62 59 49 43 58 77 91 95
158 166 168 200 132 98 167 119 85 40 54 347 339 342 4 352 15 252 211 66 353 13 36 52 67 79 58 31 38 45 22 105 117 94 66 58 55 50 48 43 38 36 34 33 34 34 34 29 34 34 30 26 26 33 36 37 38 34 32 27 25 30 31 23 25 14 2 16 32 39 33 43 55 70 74 77 73 64 71 66 53 60 82 80 61 60
82 113 20 62 77 68 79 102 118 105 56 354 337 359 10 12 238 284 37 356 356 44 44 52 50 46 50 51 50 77 50 76 101 95 80 74 63 54 51 52 46 37 36 33 30 30 35 37 40 40 34 27 22 21 25 38 45 39 32 27 26 25 18 12 12 18 2 12 34 34 42 42 50 65 83 92 94 98 85 76 82 77 73 79 83 78
51 45 99 97 75 81 97 81 92 101 37 347 333 29 354 274 29 70 69 17 33 53 47 54 61 64 75 78 81 89 96 89 88 85 80 71 62 50 44 41 39 37 45 42 34 32 36 40 41 38 33 23 23 24 23 32 48 43 36 31 25 14 6 2 360 1 13 27 33 37 31 30 38 48 65 88 88 62 72 95 129 134 108 97 100 104
0 336 72 56 42 83 55 101 106 67 21 360 328 23 10 50 77 103 87 50 47 61 64 63 72 82 88 88 89 94 91 86 84 80 75 68 63 55 46 41 33 35 34 31 33 33 35 38 37 41 40 26 22 22 23 31 40 39 42 36 17 6 5 5 -0 1 8 28 38 37 26 29 32 36 47 59 79 113 114 118 109 114 124 118 117 121
344 98 93 66 350 86 64 63 57 31 11 18 29 68 44 65 104 106 83 74 58 64 77 81 79 89 91 97 95 90 90 90 82 80 80 74 70 65 52 42 46 45 41 42 41 36 35 39 38 38 38 38 30 26 25 28 35 32 38 34 9 8 5 7 7 4 16 21 24 35 45 37 31 33 33 36 51 61 51 55 77 68 72 170 160 160
354 47 352 88 17 54 91 99 109 99 63 55 66 75 78 78 79 79 85 85 86 79 84 85 86 87 96 97 93 94 93 91 94 89 79 68 52 46 45 40 37 35 31 33 35 37 38 37 36 36 41 39 36 34 33 29 31 28 28 15 11 11 9 3 5 17 23 23 19 19 28 33 35 31 36 33 27 32 30 28 25 58 33 42 32 33
172 111 99 83 87 95 95 107 104 86 77 76 72 76 80 80 79 86 88 91 84 85 85 92 95 95 95 96 100 98 98 100 98 96 92 90 89 69 64 57 39 28 30 31 28 27 34 36 36 34 37 49 52 48 39 44 42 34 14 3 8 10 4 3 7 18 23 21 22 21 25 20 35 36 28 30 29 30 24 29 42 34 24 19 15 18
139 140 107 106 146 121 80 101 92 93 93 85 80 79 79 79 84 88 90 93 99 96 93 90 95 94 84 82 88 97 99 100 99 101 99 92 77 77 81 85 64 41 31 31 25 24 32 30 31 32 32 43 50 57 56 58 67 62 1 3 13 2 351 2 3 7 6 15 17 19 22 32 38 55 50 45 43 41 35 36 45 43 35 29 23 21
80 83 86 85 89 87 106 99 93 92 91 92 86 81 79 83 88 89 94 98 102 104 101 99 91 81 74 71 61 60 63 75 87 82 88 91 96 101 96 76 72 62 43 37 27 21 30 30 29 20 20 26 42 54 62 73 88 76 24 335 316 320 337 7 20 13 359 356 352 356 25 38 41 57 56 48 44 31 28 34 49 50 39 29 21 19
99 120 85 101 96 100 104 101 99 96 90 90 93 94 101 105 104 104 103 102 100 99 96 92 92 97 93 88 83 79 73 67 65 70 75 82 115 123 106 96 116 115 78 48 34 29 13 19 22 21 15 8 7 27 74 80 71 98 155 265 284 308 348 0 15 30 13 359 357 357 346 1 50 89 86 75 60 46 31 -0 26 69 61 41 15 33
104 101 115 115 109 106 111 126 135 106 97 92 95 103 108 112 111 111 108 103 101 95 93 92 91 94 99 98 96 92 88 80 70 67 62 54 205 168 157 179 177 172 175 178 201 53 118 337 34 39 35 358 344 15 4 30 113 122 144 106 315 317 322 314 33 57 30 11 5 352 333 351 12 85 133 123 114 104 69 45 36 51 113 87 53 63
48 86 126 102 101 107 106 94 81 91 97 95 95 90 93 99 106 104 100 105 114 118 118 116 110 107 99 92 84 83 82 77 74 67 61 49 36 42 197 199 187 189 182 179 179 193 160 98 42 39 102 197 215 111 93 311 332 173 169 186 76 34 24 14 34 54 25 351 331 335 295 0 0 30 65 122 139 121 104 96 44 37 52 94 116 100